Location: ??????
(55.6130°N, 37.7882°E)
Time: 04:34:08
(UTC+00:00)

USA 215 - Pass Details

Date: 14 April 2024
Orbit: 1100 x 1107 km, 123.0° (Epoch: 22 April)

Event Time Altitude Azimuth Distance (km) Brightness Sun altitude
Rises 01:35:14 0° 90° (E) 3,925 7.4 -7.4°
Reaches altitude 10° 01:37:43 10° 89° (E) 2,967 6.7 -7.1°
Maximum altitude 01:44:16 80° 4° (N) 1,123 3.4 -6.3°
Drops below altitude 10° 01:50:49 10° 279° (W) 2,963 5.0 -5.4°
Sets 01:53:18 0° 278° (W) 3,921 5.6 -5.1°
